This demonstration page uses our WeatherBlox Daily Observations layout. Learn more.

42.59453, -71.72452

Hourly Observations for January 14, 2018

Temp ( °F °C ) Dew Point ( °F °C ) Humidity (%) Winds ( mph kmh ) Pressure ( in mb ) Visibility ( mi km ) Precip ( " mm )
12:52 am 00:52 Clear 17 -8.3 5 -15 59 59 NNW 10 17 30.33 1027 10 16.09344 0 0
1:52 am 01:52 Clear 16 -8.9 5 -15 62 62 NNW 9 15 30.39 1029 10 16.09344 0 0
2:52 am 02:52 Clear 16 -8.9 5 -15 62 62 NNW 7 11 30.39 1029 10 16.09344 0 0
3:52 am 03:52 Clear 15 -9.4 3 -16.1 59 59 NW 10 17 30.42 1030 10 16.09344 0 0
4:52 am 04:52 Clear 14 -10 5 -15 67 67 NNW 5 7 30.45 1031 10 16.09344 0 0
5:52 am 05:52 Clear 14 -10 1 -17.2 56 56 NNW 10 17 30.45 1031 10 16.09344 0 0
6:52 am 06:52 Clear 14 -10 0 -17.8 53 53 NNW 8 13 30.5 1033 10 16.09344 0 0
7:52 am 07:52 Sunny 14 -10 -1 -18.3 51 51 NNW 7 11 30.53 1034 10 16.09344 0 0
8:52 am 08:52 Sunny 15 -9.4 -3 -19.4 44 44 NW 12 19 30.56 1035 10 16.09344 0 0
9:52 am 09:52 Sunny 16 -8.9 -5 -20.6 38 38 NW 10 17 30.59 1036 10 16.09344 0 0
10:52 am 10:52 Sunny 20 -6.7 -6 -21.1 31 31 NNW 10 17 30.59 1036 10 16.09344 0 0
11:52 am 11:52 Sunny 22 -5.6 -7 -21.7 27 27 NW 10 17 30.59 1036 10 16.09344 0 0
12:52 pm 12:52 Sunny 25 -3.9 -5 -20.6 26 26 NNW 12 19 30.56 1035 10 16.09344 0 0
1:52 pm 13:52 Sunny 26 -3.3 -4 -20 26 26 NW 13 20 30.56 1035 10 16.09344 0 0
2:52 pm 14:52 Sunny 25 -3.9 -4 -20 28 28 NNW 12 19 30.59 1036 10 16.09344 0 0
3:52 pm 15:52 Sunny 24 -4.4 -3 -19.4 30 30 NNW 9 15 30.62 1037 10 16.09344 0 0
4:52 pm 16:52 Clear 20 -6.7 -1 -18.3 40 40 N 9 15 30.65 1038 10 16.09344 0 0
5:52 pm 17:52 Clear 18 -7.8 1 -17.2 47 47 N 6 9 30.65 1038 10 16.09344 0 0
6:52 pm 18:52 Clear 16 -8.9 1 -17.2 51 51 N 5 7 30.68 1039 10 16.09344 0 0
7:52 pm 19:52 Clear 15 -9.4 0 -17.8 51 51 N 5 7 30.71 1040 10 16.09344 0 0
8:52 pm 20:52 Clear 13 -10.6 1 -17.2 59 59 NNW 3 6 30.71 1040 10 16.09344 0 0
9:52 pm 21:52 Clear 12 -11.1 3 -16.1 67 67 NW 3 6 30.71 1040 10 16.09344 0 0
10:52 pm 22:52 Clear 12 -11.1 1 -17.2 61 61 NNW 3 6 30.71 1040 10 16.09344 0 0
11:52 pm 23:52 Clear 12 -11.1 0 -17.8 58 58 NW 5 7 30.71 1040 10 16.09344 0 0

Powered by AerisWeather